Waarnemingen

Advertentie
Mijn weer
Åsele, Zweden (2254): temperatuur & dauwpunt: 16.08.2018 01:00:00 - 22.08.2018 01:00:00 (CEST)Åsele, Zweden (2254): windsnelheid & windstoten: 16.08.2018 01:00:00 - 22.08.2018 01:00:00 (CEST)Åsele, Zweden (2254): windrichting: 16.08.2018 01:00:00 - 22.08.2018 01:00:00 (CEST)Åsele, Zweden (2254): luchtdruk: 16.08.2018 01:00:00 - 22.08.2018 01:00:00 (CEST)Åsele, Zweden (2254): zicht: 16.08.2018 01:00:00 - 22.08.2018 01:00:00 (CEST)Åsele, Zweden (2254): neerslag: 16.08.2018 01:00:00 - 22.08.2018 01:00:00 (CEST)
Datum & Tijd tt [°C] td [°C] ff [km/u] ff [kn] fx [km/u] fx [kn] dd ppp [hPa] vv [km] rr [mm]
22.08.2018 01:00:00 - - - - - - - - - -
22.08.2018 00:00:00 0,9 0,8 0 0 6 4 N 1018,5 34 0,0
21.08.2018 23:00:00 1,2 0,9 3 2 7 4 W 1018,3 41 0,0
21.08.2018 22:00:00 2,9 2,3 0 0 5 3 N 1017,6 47 0,0
21.08.2018 21:00:00 5,2 3,4 3 2 9 5 NW 1017,0 49 0,0
21.08.2018 20:00:00 8,8 4,0 2 1 20 11 NNW 1016,1 50 0,0
21.08.2018 19:00:00 11,8 3,0 10 6 29 15 WNW 1015,1 49 0,0
21.08.2018 18:00:00 12,6 3,3 12 6 32 17 WNW 1014,7 48 0,0
21.08.2018 17:00:00 12,5 3,7 11 6 38 20 NW 1014,6 41 0,0
21.08.2018 16:00:00 14,0 2,9 17 9 36 19 NW 1013,9 32 0,0
21.08.2018 15:00:00 14,2 2,4 17 9 36 20 NNW 1013,5 28 0,0
21.08.2018 14:00:00 11,8 2,3 10 6 41 22 NW 1013,9 50 0,0
21.08.2018 13:00:00 12,6 3,8 11 6 38 21 NNW 1013,5 40 0,1
21.08.2018 12:00:00 11,1 2,7 14 8 39 21 WNW 1013,4 41 0,0
21.08.2018 11:00:00 11,6 3,4 16 8 35 19 WNW 1013,0 38 0,0
21.08.2018 10:00:00 10,7 2,3 19 11 34 18 NW 1012,6 30 0,0
21.08.2018 09:00:00 9,6 4,0 14 7 31 17 WNW 1012,2 34 0,0
21.08.2018 08:00:00 8,3 3,9 11 6 23 12 W 1012,0 40 0,0
21.08.2018 07:00:00 6,1 3,4 7 4 16 9 W 1012,0 36 0,0
21.08.2018 06:00:00 3,3 3,2 5 3 9 5 W 1012,1 42 0,0
21.08.2018 05:00:00 1,5 0,8 0 0 10 6 N 1011,9 36 0,0
21.08.2018 04:00:00 4,2 3,0 5 3 17 9 W 1011,5 49 0,0
21.08.2018 03:00:00 5,2 3,9 7 4 16 8 W 1011,0 50 0,0
21.08.2018 02:00:00 4,8 3,6 5 3 11 6 W 1010,7 47 0,0
21.08.2018 01:00:00 4,3 3,7 5 3 14 8 WNW 1010,3 44 0,0
21.08.2018 00:00:00 6,0 4,6 5 3 11 6 W 1009,4 50 0,0
20.08.2018 23:00:00 6,7 5,5 4 2 10 5 W 1008,9 48 0,0
20.08.2018 22:00:00 5,5 4,3 3 1 13 7 W 1008,9 50 0,0
20.08.2018 21:00:00 9,5 4,7 7 4 19 10 NW 1007,9 50 0,0
20.08.2018 20:00:00 11,3 5,0 11 6 24 13 WNW 1007,3 41 0,0
20.08.2018 19:00:00 12,4 4,9 8 5 21 12 NW 1006,9 50 0,0
20.08.2018 18:00:00 13,1 5,0 11 6 26 14 W 1006,7 47 0,0
20.08.2018 17:00:00 13,5 5,6 9 5 26 14 NNW 1006,7 36 0,0
20.08.2018 16:00:00 12,8 7,3 7 4 27 15 W 1006,7 25 0,0
20.08.2018 15:00:00 15,1 5,3 14 7 29 16 W 1006,4 35 0,0
20.08.2018 14:00:00 15,1 6,6 10 5 27 14 W 1006,7 34 0,0
20.08.2018 13:00:00 13,5 5,9 12 7 32 17 W 1007,0 44 0,0
20.08.2018 12:00:00 14,1 6,7 11 6 31 17 W 1006,8 39 0,0
20.08.2018 11:00:00 12,3 5,5 11 6 32 18 W 1007,3 40 0,0
20.08.2018 10:00:00 13,1 6,2 13 7 28 15 W 1006,8 38 0,0
20.08.2018 09:00:00 11,7 6,2 13 7 29 15 W 1006,8 32 0,0
20.08.2018 08:00:00 10,2 6,0 11 6 22 12 W 1007,1 34 0,0
20.08.2018 07:00:00 8,2 5,8 8 4 16 9 W 1007,6 32 0,0
20.08.2018 06:00:00 3,1 3,0 0 0 7 4 N 1008,4 12 0,0
20.08.2018 05:00:00 2,2 2,1 0 0 6 3 N 1008,7 12 0,0
20.08.2018 04:00:00 3,4 2,8 2 1 10 5 ZZO 1008,8 18 0,0
20.08.2018 03:00:00 3,8 2,9 3 2 13 7 ZZO 1008,5 18 0,0
20.08.2018 02:00:00 7,1 4,1 10 6 23 12 WZW 1007,6 28 0,0
20.08.2018 01:00:00 8,0 4,2 7 4 22 12 WZW 1007,6 25 0,0
20.08.2018 00:00:00 8,6 5,0 6 3 16 9 WZW 1007,9 27 0,0
19.08.2018 23:00:00 8,7 5,3 5 3 18 10 W 1007,8 38 0,0
19.08.2018 22:00:00 8,9 5,1 7 4 21 12 WZW 1007,7 46 0,0
19.08.2018 21:00:00 9,7 6,0 7 4 18 10 WZW 1007,5 50 0,0
19.08.2018 20:00:00 11,2 6,1 9 5 33 18 W 1006,8 50 0,0
19.08.2018 19:00:00 12,3 7,4 8 5 36 19 W 1006,8 43 0,0
19.08.2018 18:00:00 12,7 6,9 12 7 49 27 W 1006,5 25 0,0
19.08.2018 17:00:00 14,8 6,1 16 8 39 21 WZW 1005,6 36 0,0
19.08.2018 16:00:00 14,3 5,9 16 9 41 22 WZW 1005,5 37 0,0
19.08.2018 15:00:00 14,0 5,4 21 12 45 24 W 1005,2 33 0,0
19.08.2018 14:00:00 14,8 6,9 16 9 39 21 WZW 1004,6 36 0,0
19.08.2018 13:00:00 13,5 6,6 21 11 50 27 WZW 1004,2 42 0,0
19.08.2018 12:00:00 13,3 7,3 16 9 41 22 WZW 1003,8 35 0,0
19.08.2018 11:00:00 11,9 8,4 14 8 44 24 W 1003,5 19 0,0
19.08.2018 10:00:00 13,8 8,6 17 9 44 24 WZW 1002,4 36 0,0
19.08.2018 09:00:00 11,5 7,6 15 8 40 21 WZW 1002,3 40 0,0
19.08.2018 08:00:00 11,7 8,5 14 8 32 18 WZW 1001,7 38 0,0
19.08.2018 07:00:00 10,1 8,7 14 7 34 18 ZW 1001,2 41 0,0
19.08.2018 06:00:00 9,3 9,2 6 3 18 10 ZW 1001,0 44 0,0
19.08.2018 05:00:00 7,3 7,2 8 4 22 12 ZW 1000,6 50 0,0
19.08.2018 04:00:00 7,3 7,3 6 3 14 7 ZW 1000,5 50 0,0
19.08.2018 03:00:00 7,3 7,3 5 3 13 7 ZW 1000,2 50 0,0
19.08.2018 02:00:00 7,5 7,4 3 1 14 7 ZZW 999,8 26 0,2
19.08.2018 01:00:00 9,3 9,0 8 4 26 14 W 999,9 6 1,9
19.08.2018 00:00:00 9,6 9,1 9 5 31 17 W 998,4 9 1,1
18.08.2018 23:00:00 12,4 12,1 10 5 29 16 ZW 996,9 29 0,3
18.08.2018 22:00:00 12,5 12,0 10 5 23 13 ZZW 997,3 35 0,1
18.08.2018 21:00:00 12,4 11,9 10 5 26 14 Z 998,1 17 1,0
18.08.2018 20:00:00 12,2 11,7 8 4 29 16 ZZW 999,4 9 1,1
18.08.2018 19:00:00 12,2 11,6 8 4 30 16 Z 1000,4 8 1,2
18.08.2018 18:00:00 13,0 11,2 7 4 24 13 Z 1001,6 14 0,2
18.08.2018 17:00:00 14,3 10,5 11 6 24 13 ZZW 1002,0 37 0,0
18.08.2018 16:00:00 15,3 8,8 8 4 26 14 Z 1002,4 47 0,0
18.08.2018 15:00:00 15,2 8,2 14 7 35 19 ZZW 1003,2 43 0,0
18.08.2018 14:00:00 16,4 8,4 15 8 36 20 ZZW 1003,4 48 0,0
18.08.2018 13:00:00 17,4 7,4 11 6 29 15 Z 1003,6 36 0,0
18.08.2018 12:00:00 17,3 7,3 10 5 29 15 Z 1004,2 35 0,0
18.08.2018 11:00:00 16,6 10,0 10 5 25 14 Z 1004,9 32 0,0
18.08.2018 10:00:00 14,5 9,1 6 3 16 9 ZZO 1005,9 37 0,0
18.08.2018 09:00:00 13,3 8,8 5 3 15 8 ZZO 1006,5 33 0,0
18.08.2018 08:00:00 10,3 10,3 2 1 5 3 ONO 1007,7 33 0,0
18.08.2018 07:00:00 7,5 7,5 2 1 5 3 O 1008,4 0,3 0,0
18.08.2018 06:00:00 6,0 6,0 0 0 3 1 N 1008,9 0,4 0,0
18.08.2018 05:00:00 4,7 4,7 0 0 3 1 N 1009,2 0,8 0,0
18.08.2018 04:00:00 5,2 5,2 0 0 3 1 N 1009,2 0,2 0,0
18.08.2018 03:00:00 4,8 4,8 0 0 3 1 N 1009,2 1,8 0,0
18.08.2018 02:00:00 5,9 5,8 0 0 4 2 N 1008,7 1,4 0,0
18.08.2018 01:00:00 7,7 7,4 0 0 3 2 N 1008,4 2,0 0,2
18.08.2018 00:00:00 9,0 8,5 0 0 5 3 N 1007,9 7 0,0
17.08.2018 23:00:00 11,8 9,7 4 2 11 6 N 1007,2 50 0,2
17.08.2018 22:00:00 13,9 8,7 3 2 16 8 N 1006,4 50 0,0
17.08.2018 21:00:00 15,4 9,1 6 3 17 9 NW 1005,7 50 0,0
17.08.2018 20:00:00 17,5 9,6 10 5 23 12 ZZW 1004,7 38 0,0
17.08.2018 19:00:00 18,2 9,3 11 6 23 13 ZZW 1004,7 45 0,0
17.08.2018 18:00:00 18,3 8,8 10 5 28 15 ZZW 1004,8 42 0,0
17.08.2018 17:00:00 18,0 8,8 10 5 24 13 ZW 1004,8 41 0,0
17.08.2018 16:00:00 18,4 10,5 17 9 40 22 ZW 1005,1 41 0,0
17.08.2018 15:00:00 20,6 10,7 18 10 48 26 ZW 1004,5 33 0,0
17.08.2018 14:00:00 20,0 11,7 10 5 35 19 ZW 1004,8 39 0,0
17.08.2018 13:00:00 19,5 12,0 12 7 47 25 ZW 1005,0 41 0,0
17.08.2018 12:00:00 20,4 12,1 15 8 37 20 ZW 1004,5 31 0,0
17.08.2018 11:00:00 17,9 13,0 12 7 37 20 ZW 1004,7 39 0,0
17.08.2018 10:00:00 18,4 14,1 15 8 37 20 ZZW 1004,1 29 0,0
17.08.2018 09:00:00 17,1 14,9 10 5 31 17 ZZW 1004,3 25 0,2
17.08.2018 08:00:00 17,5 14,0 13 7 35 19 ZZW 1004,2 23 0,0
17.08.2018 07:00:00 16,7 13,6 11 6 32 18 ZZW 1004,2 22 0,0
17.08.2018 06:00:00 16,0 13,3 7 4 32 17 Z 1004,6 24 0,0
17.08.2018 05:00:00 15,9 13,4 10 6 31 17 Z 1004,6 24 0,0
17.08.2018 04:00:00 16,3 13,6 11 6 26 14 ZZO 1004,9 29 0,0
17.08.2018 03:00:00 16,4 13,3 10 5 26 14 Z 1005,1 32 0,0
17.08.2018 02:00:00 16,4 13,7 7 4 27 15 Z 1005,4 34 0,0
17.08.2018 01:00:00 17,0 13,7 9 5 23 12 Z 1005,8 33 0,0
17.08.2018 00:00:00 16,8 13,9 9 5 26 14 Z 1006,2 43 0,0
16.08.2018 23:00:00 16,2 13,9 8 4 22 12 Z 1006,7 42 0,0
16.08.2018 22:00:00 16,8 14,3 8 4 26 14 ZZO 1006,5 44 0,0
16.08.2018 21:00:00 16,8 14,3 8 5 22 12 ZZO 1007,1 36 0,0
16.08.2018 20:00:00 16,9 14,0 8 4 25 13 ZZO 1007,2 38 0,0
16.08.2018 19:00:00 17,0 13,5 6 4 16 9 ZZO 1007,6 37 0,0
16.08.2018 18:00:00 17,1 13,2 8 5 24 13 ZZO 1008,0 42 0,0
16.08.2018 17:00:00 18,1 12,8 6 4 24 13 Z 1008,2 34 0,0
16.08.2018 16:00:00 18,4 13,5 5 3 27 15 Z 1008,2 42 0,0
16.08.2018 15:00:00 18,5 13,4 9 5 22 12 ZZW 1008,4 35 0,0
16.08.2018 14:00:00 17,4 12,7 11 6 26 14 ZZW 1008,8 40 0,0
16.08.2018 13:00:00 17,5 12,8 8 5 25 13 ZZW 1008,7 47 0,0
16.08.2018 12:00:00 17,9 11,9 8 4 30 16 Z 1008,5 36 0,0
16.08.2018 11:00:00 16,7 11,6 9 5 27 15 Z 1008,9 43 0,0
16.08.2018 10:00:00 16,2 11,8 8 4 24 13 Z 1009,2 42 0,0
16.08.2018 09:00:00 14,8 11,4 7 4 18 10 ZZO 1009,4 46 0,0
16.08.2018 08:00:00 14,0 11,0 6 3 18 10 ZZO 1009,7 42 0,0
16.08.2018 07:00:00 12,8 10,7 4 2 16 9 ZO 1010,2 34 0,0
16.08.2018 06:00:00 9,8 9,5 4 2 11 6 OZO 1010,8 35 0,0
16.08.2018 05:00:00 10,2 9,4 4 2 13 7 ZZO 1010,8 40 0,0
16.08.2018 04:00:00 10,5 9,4 4 2 12 6 OZO 1010,6 41 0,0
16.08.2018 03:00:00 10,2 9,3 5 3 12 7 ZO 1010,9 43 0,0
16.08.2018 02:00:00 11,2 9,6 5 3 11 6 ZZO 1011,0 46 0,0
16.08.2018 01:00:00 11,4 9,7 3 2 13 7 ZZO 1010,9 41 0,0

tt = temperatuur
td = dauwpunt
ff = windsnelheid
fx = windstoten
dd = windrichting
ppp = luchtdruk
vv = zicht
rr = neerslag

Weerstations in de omgeving